Regional Weather Roundup
Issued by NWS

Home | Current Version | Previous Version | Text Only | Print | Product List | Glossary Off
Versions: 1 2 3 4 5 6 7 8 9 10 11 12 13 14 15 16 17 18 19 20 21 22 23 24 25 26 27 28 29 30 31 32 33 34 35 36 37 38 39 40 41 42 43 44 45 46 47 48 49 50

000
ASUS43 KDMX 181707
RWRIA

WEATHER ROUNDUP FOR IOWA
NATIONAL WEATHER SERVICE DES MOINES IA
1200 PM CDT THU SEP 18 2014

NOTE: "FAIR" INDICATES FEW OR NO CLOUDS BELOW 12,000 FEET WITH NO
SIGNIFICANT WEATHER AND/OR OBSTRUCTIONS TO VISIBILITY.

* - THESE STATIONS ARE NOT NWS STATIONS...THUS NOT UNDER NWS
QUALITY CONTROL.  THEY ALSO DO NOT REPORT WEATHER SUCH
AS PRECIPITATION OR FOG.

IAZ001>003-012>014-020>022-031>034-043>046-181800-
   NORTHWEST IOWA

CITY           SKY/WX    TMP DP  RH WIND       PRES   REMARKS
CARROLL *      MOSUNNY   66  57  72 SE12      30.07F
CHEROKEE *     SUNNY     70  55  60 S13       30.05F
DENISON *      MOSUNNY   66  57  72 SE10G16   30.05S
LE MARS *      SUNNY     72  57  60 SE13      30.04S
ORANGE CITY *  SUNNY     72  55  56 S10       30.04F
SHELDON *      SUNNY     70  57  64 SE12G18   30.04S
SIOUX CITY     SUNNY     72  58  61 SE13      30.04S
SPENCER        SUNNY     69  56  62 S14       30.06F
STORM LAKE *   SUNNY     68  61  77 SE15      30.06F
$$

IAZ055>058-069>071-079>083-090>094-181800-
   SOUTHWEST IOWA

CITY           SKY/WX    TMP DP  RH WIND       PRES   REMARKS
ATLANTIC *     MOSUNNY   68  57  68 E9G16     30.05S
AUDUBON *      MOSUNNY   68  55  64 SE8       30.07S
CLARINDA *     MOSUNNY   70  57  64 SE12G17   30.07R
COUNCIL BLFS * MOSUNNY   70  63  78 SE10      30.04S
CRESTON *      MOSUNNY   66  55  68 SE10G16   30.08R
HARLAN  *      MOSUNNY   70  59  68 SE10      30.09S
LAMONI         SUNNY     64  53  67 SE9       30.07S
SHENANDOAH *   SUNNY     72  57  60 SE10      30.05R
$$

IAZ047>049-059>061-072>074-084-181800-
   CENTRAL IOWA

CITY           SKY/WX    TMP DP  RH WIND       PRES   REMARKS
AMES           MOSUNNY   66  55  67 S9        30.09S
ANKENY *       MOSUNNY   66  55  68 SE13      30.09S
CHARITON *     SUNNY     66  54  63 SE16      30.08S
DES MOINES     MOSUNNY   65  56  72 VRB5      30.09S
GRINNELL*      SUNNY     68  54  60 SE12      30.10F
KNOXVILLE *    MOSUNNY   66  54  63 SE10      30.07F
MARSHALLTOWN   SUNNY     67  53  61 SE14G21   30.09F
PELLA *        MOSUNNY   70  55  60 SE12      30.10F
PERRY *          N/A     68  57  68 SE12G17   30.08F
$$

IAZ004>006-015-016-023>025-035-036-181800-
   NORTH CENTRAL IOWA

CITY           SKY/WX    TMP DP  RH WIND       PRES   REMARKS
ALGONA *       MOSUNNY   70  55  60 SE9G15    30.08F
CLARION *        N/A     70  52  52 S13G20    30.08F
ESTHERVILLE    SUNNY     67  57  70 S14       30.07F
FORT DODGE *   SUNNY     68  55  64 SE10      30.09S
MASON CITY     SUNNY     69  53  56 S12       30.11S
FOREST CITY *  SUNNY     70  54  56 S10G17    30.09S
IOWA FALLS *     N/A     70  50  49 SE10G17   30.10F
$$

IAZ007>011-017>019-026>030-037>042-050>054-066-181800-
   NORTHEAST IOWA

CITY           SKY/WX    TMP DP  RH WIND       PRES   REMARKS
CEDAR RAPIDS   SUNNY     68  55  63 SE12      30.11F
CHARLES CITY * SUNNY     68  52  56 S12       30.11F
CLINTON *      SUNNY     68  54  60 SE10      30.16S
DECORAH *      MOSUNNY   66  55  68 VRB7      30.12F
DUBUQUE        SUNNY     66  53  63 SE7       30.14F
MONTICELLO *   SUNNY     70  55  60 VRB7G13   30.12S
OELWEIN *      MOSUNNY   70  54  56 SE8G16    30.12F
WATERLOO       SUNNY     68  53  58 SE9       30.10F
$$

IAZ064-065-067-068-078-181800-
   EAST CENTRAL IOWA

CITY           SKY/WX    TMP DP  RH WIND       PRES   REMARKS
DAVENPORT      SUNNY     70  49  47 E9        30.12F
IOWA CITY      SUNNY     69  54  58 SE12      30.13S
MT. PLEASANT * SUNNY     72  48  43 SE8       30.11S
MUSCATINE *    MOSUNNY   72  54  53 E7        30.11F
QUAD CITIES    SUNNY     70  53  54 E12       30.11F
$$

IAZ062-063-075>077-085>089-095>099-181800-
   SOUTHEAST IOWA

CITY           SKY/WX    TMP DP  RH WIND       PRES   REMARKS
BURLINGTON     SUNNY     70  54  56 SE8       30.10F
FAIRFIELD *    MOSUNNY   68  54  60 SE14      30.10F
FORT MADISON * SUNNY     72  54  53 SE8       30.11S
KEOKUK *       SUNNY     68  55  64 S6G12     30.09F
OSKALOOSA *      N/A     68  55  64 E13       30.10S
CENTERVILLE *  SUNNY     64  55  72 SE12      30.10F
OTTUMWA        MOSUNNY   68  54  60 SE13G18   30.09S
WASHINGTON *   SUNNY     72  54  53 SE9G17    30.11S
$$

ABBREVIATIONS USED IN REMARKS
   TC - TEMPERATURES IN CELSIUS
  WCI - WIND CHILL INDEX
   HX - HEAT INDEX
  VSB - VISIBILITY
$$



USA.gov is the U.S. government's official web portal to all federal, state and local government web resources and services.